Location: Prague
(50.0833°N, 14.4667°E)
Time: 21:03:27
(UTC+02:00)

ISS - Pass Details

Date: 31 May 2024
Orbit: 410 x 421 km, 51.6° (Epoch: 12 June)

Event Time Altitude Azimuth Distance (km) Brightness Sun altitude
Rises 15:51:45 0° 260° (W) 2,374 0.8 46.3°
Reaches altitude 10° 15:53:51 10° 261° (W) 1,510 0.0 46.0°
Maximum altitude 15:57:15 77° 348° (NNW) 439 -2.9 45.5°
Drops below altitude 10° 16:00:39 10° 75° (ENE) 1,511 -1.3 45.0°
Sets 16:02:45 0° 77° (ENE) 2,375 -0.4 44.7°
